Starlink 35918

operational
NORAD ID: 66643 Int'l Des: 2025-271 Owner: SPXS Country: US Constellation: starlink
LEOCIRCULAR

Über Starlink 35918

Beschreibung wird geladen...

Live-Position

3D-Globus wird geladen...

Nächste Überflüge

Höhenverlauf

Altitude vs Time

uPlot chart will show altitude changes over time

Zweizeiliger Elementsatz

1 66643U 25271AC 26072.51443945 .00024800 00000-0 84643-3 0 9996
2 66643 53.1589 122.0695 0001008 54.3798 305.7297 15.30208530 18153
Epoch: 13. März 2026 • Age: 37 hours

Aktueller Status

Höhe 482.7 km
Geschwindigkeit 7.62 km/s
Subsatellitenpunkt -24.42°S, 46.69°W
Startdatum 23. Nov. 2025
Alter 0.3 years
Typ internet

Technische Details

Klassifizierung Payload
Masse 575.00 kg
Trockenmasse 530.00 kg
Gesamtmasse 575.00 kg
Länge 0.30 m
Durchmesser 4.10 m
Spannweite 29.00 m
Form Box + pan
Hersteller SPXS
Bus-Typ Starlink V2MO
Phasenstatus In Orbit
Besitzer/Staat SPXS/US

Große Konstellationen

Loading constellations...